This is the latest recevied weather packets stored in our database for station/object AD7ZD. If no packets are shown the sender has not sent any weather packets the latest 10 day(s).
| Time | Temp. | Humidity | Pressure | Rain* | Wind** | Luminosity | Snow |
|---|---|---|---|---|---|---|---|
| 1777841024 | 22.78° C | 19% | 1007.3 hPa | 0 mm | - | 131 W/m² | - |
| 1777840721 | 22.78° C | 20% | 1007 hPa | 0 mm | - | 187 W/m² | - |
| 1777840418 | 23.33° C | 20% | 1007.2 hPa | 0 mm | - | 279 W/m² | - |
| 1777840115 | 23.33° C | 20% | 1006.9 hPa | 0 mm | - | 405 W/m² | - |
| 1777839814 | 23.33° C | 21% | 1007.1 hPa | 0 mm | - | 558 W/m² | - |
| 1777839512 | 22.78° C | 23% | 1007.1 hPa | 0 mm | - | 484 W/m² | - |
| 1777839208 | 22.78° C | 24% | 1007.1 hPa | 0 mm | - | 483 W/m² | - |
| 1777838906 | 22.22° C | 24% | 1007.2 hPa | 0 mm | - | 464 W/m² | - |
| 1777838601 | 22.22° C | 24% | 1007.3 hPa | 0 mm | - | 439 W/m² | - |
| 1777838299 | 22.22° C | 25% | 1007.2 hPa | 0 mm | - | 427 W/m² | - |
| 1777837995 | 21.67° C | 25% | 1007.6 hPa | 0 mm | - | 374 W/m² | - |
| 1777837693 | 22.22° C | 25% | 1007.8 hPa | 0 mm | - | 334 W/m² | - |
| 1777837389 | 21.67° C | 24% | 1007.9 hPa | 0 mm | - | 324 W/m² | - |
| 1777837085 | 21.11° C | 24% | 1008 hPa | 0 mm | - | 356 W/m² | - |
| 1777836781 | 21.67° C | 24% | 1007.9 hPa | 0 mm | - | 436 W/m² | - |
| 1777836477 | 21.67° C | 24% | 1008.1 hPa | 0 mm | - | 418 W/m² | - |
| 1777836172 | 21.67° C | 25% | 1008.4 hPa | 0 mm | - | 344 W/m² | - |
| 1777835869 | 22.78° C | 25% | 1008.3 hPa | 0 mm | - | 389 W/m² | - |
| 1777835566 | 21.67° C | 27% | 1008.1 hPa | 0 mm | - | 417 W/m² | - |
| 1777835263 | 21.67° C | 25% | 1008.5 hPa | 0 mm | - | 405 W/m² | - |
| 1777834960 | 21.11° C | 28% | 1008.5 hPa | 0 mm | - | 439 W/m² | - |
| 1777834657 | 21.11° C | 29% | 1008.6 hPa | 0 mm | - | 458 W/m² | - |
| 1777834352 | 21.11° C | 30% | 1008.7 hPa | 0 mm | - | 533 W/m² | - |
| 1777834047 | 20.56° C | 29% | 1008.8 hPa | 0 mm | - | 510 W/m² | - |
| 1777833744 | 20.56° C | 29% | 1008.9 hPa | 0 mm | - | 488 W/m² | - |
* Rain latest hour (hover to see other rain measurements)
** Current wind speed in m/s (hover to see current wind gust speed)